[[{"header":{"parameterUnit":"m.s-1","parameterCategory":1,"la1":30.2991,"la2":30.254,"lo1":-89.0895,"lo2":-89.0444,"dy":0.0017,"dx":0.0017,"nx":28,"ny":28,"refTime":"2025-06-22T21:00:00:Z","depth":0,"parameterNumber":2,"parameterNumberName":"U-component_of_WINDS"},"data":[0,0,0,0,0,0,0,0,0,0,0,0,0,0,0,0,0,0,0,0,0,0,0,0,0,0,0,0,0,0,0,0,0,0,0,0,0,0,0,0,0,0,0,0,0,0,0,0,0,0,0,0,0,0,0,0,0,0,-0.9201,-0.9201,0,-0.9221,-0.9221,-0.9221,-0.9195,-0.9195,-0.9194,-0.9193,-0.9216,-0.9217,-0.9219,0,0,0,0,0,0,0,0,0,0,0,0,0,-0.9145,-0.9146,-0.9201,-0.9201,-0.9202,-0.922,-0.9221,-0.9221,-0.9196,-0.9195,-0.9193,-0.9192,-0.9215,-0.9217,-0.9219,0,0,0,0,0,0,0,0,0,0,0,0,0,-0.9167,-0.9146,-0.9201,-0.9191,-0.919,-0.922,-0.9221,-0.9221,-0.9196,-0.9194,-0.9193,-0.9192,-0.9215,-0.9217,-0.9219,-0.9261,0,0,-0.9226,-0.9227,0,0,0,0,0,0,0,0,-0.9166,-0.9169,-0.9192,-0.9192,-0.9191,-0.9204,-0.9209,-0.9234,-0.9196,-0.9194,-0.9193,-0.9191,-0.9213,-0.9215,-0.9222,-0.9262,-0.9263,-0.9226,-0.9227,-0.9228,-0.9229,0,0,0,0,0,0,0,-0.9165,-0.9168,-0.9209,-0.9193,-0.9192,-0.9187,-0.9188,-0.9214,-0.9211,-0.9194,-0.9192,-0.9195,-0.9213,-0.922,-0.9223,-0.9263,-0.9226,-0.9228,-0.9229,-0.923,-0.9338,-0.934,0,0,0,0,0,0,-0.9164,-0.9167,-0.9208,-0.9209,-0.9175,-0.9189,-0.9191,-0.9201,-0.9211,-0.9211,-0.9196,-0.9193,-0.9217,-0.922,-0.9223,-0.9273,-0.9228,-0.923,-0.9231,-0.9337,-0.9339,-0.934,0,0,0,0,0,0,-0.9163,-0.9168,-0.9207,-0.9188,-0.9192,-0.9191,-0.9204,-0.9203,-0.921,-0.9212,-0.9212,-0.9204,-0.9216,-0.922,-0.9251,-0.9274,-0.9231,-0.9233,-0.9335,-0.9337,-0.934,-0.9373,0,0,0,0,0,0,-0.9161,-0.9167,-0.9183,-0.9188,-0.9194,-0.9235,-0.9205,-0.9204,-0.9214,-0.9211,-0.922,-0.922,-0.9215,-0.9248,-0.9254,-0.9276,-0.9235,-0.9333,-0.9336,-0.9339,-0.937,-0.9376,-0.9382,0,0,0,0,0,-0.9159,-0.9192,-0.9183,-0.9188,-0.9212,-0.9236,-0.9239,-0.9232,-0.9215,-0.9231,-0.9233,-0.922,-0.927,-0.9252,-0.9257,-0.9281,-0.9332,-0.9335,-0.9339,-0.9367,-0.9375,-0.9382,0,0,0,0,0,0,-0.919,-0.9192,-0.9183,-0.9218,-0.9227,-0.9231,-0.9251,-0.924,-0.9255,-0.9251,-0.9243,-0.9245,-0.9279,-0.9283,-0.9262,-0.9322,-0.9298,-0.9303,-0.9318,-0.9325,-0.9331,-0.933,-0.9237,0,0,0,0,0,-0.92,-0.9218,-0.922,-0.9251,-0.9255,-0.9253,-0.9263,-0.9256,-0.9265,-0.9269,-0.9273,-0.9283,-0.9301,-0.9313,-0.933,-0.937,-0.9372,-0.9389,-0.9395,-0.94,-0.9404,-0.9427,-0.9434,-0.9352,-0.9352,-0.9352,0,0,-0.9223,-0.9226,-0.9238,-0.9257,-0.9263,-0.9283,-0.9256,-0.9278,-0.9293,-0.9273,-0.9303,-0.9306,-0.9316,-0.9352,-0.9369,-0.9357,-0.9427,-0.9404,-0.9408,-0.941,-0.9431,-0.9439,-0.9446,-0.9354,-0.9354,-0.9353,0,0,-0.9274,-0.9278,-0.9304,-0.9311,-0.932,-0.9318,-0.9324,-0.933,-0.9331,-0.9361,-0.9346,-0.9364,-0.9396,-0.9404,-0.9412,-0.9467,-0.9456,-0.9472,-0.9503,-0.9525,-0.9532,-0.9537,-0.9558,-0.9565,-0.9477,-0.9477,-0.9477,0,-0.9301,-0.9329,-0.932,-0.9343,-0.9352,-0.9333,-0.9361,-0.9368,-0.9382,-0.939,-0.9376,-0.9415,-0.9421,-0.9459,-0.9472,-0.9479,-0.9487,-0.9472,-0.9531,-0.9537,-0.9542,-0.9561,-0.9569,-0.9479,-0.9479,-0.9478,-0.9478,0,-0.9363,-0.9382,-0.9403,-0.9416,-0.9427,-0.9453,-0.9448,-0.9461,-0.9453,-0.9453,-0.9484,-0.949,-0.9508,-0.9517,-0.951,-0.9554,-0.9547,-0.9532,-0.9508,-0.9552,-0.957,-0.9577,-0.9482,-0.9481,-0.9481,-0.948,0,0,-0.9434,-0.9442,-0.9449,-0.9455,-0.9464,-0.948,-0.9504,-0.9521,-0.9532,-0.9543,-0.9564,-0.9591,-0.9577,-0.9587,-0.9581,-0.96,-0.9644,-0.9584,-0.9584,-0.9596,-0.9694,-0.9705,-0.9714,-0.9636,-0.9638,-0.9639,-0.9693,0,-0.9486,-0.9527,-0.952,-0.956,-0.9579,-0.9562,-0.9584,-0.9592,-0.9592,-0.9609,-0.9609,-0.9629,-0.9609,-0.9615,-0.9633,-0.9635,-0.9664,-0.9631,-0.9657,-0.9658,-0.9656,-0.9723,-0.9735,-0.9786,-0.97,-0.9701,-0.9702,0,-0.9552,-0.9564,-0.9607,-0.9612,-0.962,-0.9639,-0.9654,-0.967,-0.9679,-0.9678,-0.9688,-0.9679,-0.9705,-0.968,-0.9716,-0.9693,-0.9704,-0.9706,-0.9708,-0.9711,-0.9684,-0.9729,-0.9802,-0.9811,-0.9713,-0.9712,-0.9711,0,-0.9601,-0.9628,-0.9657,-0.9663,-0.967,-0.9684,-0.9688,-0.9695,-0.9706,-0.9719,-0.9726,-0.9743,-0.9752,-0.9765,-0.9761,-0.9743,-0.9799,-0.9773,-0.9799,-0.98,-0.9813,-0.9812,-0.989,-0.9818,-0.9818,-0.9817,-0.9817,0,-0.9661,-0.9688,-0.9679,-0.9697,-0.9727,-0.9718,-0.9748,-0.975,-0.9757,-0.9776,-0.9762,-0.9781,-0.9774,-0.9792,-0.9789,-0.982,-0.9824,-0.9824,-0.9824,-0.9826,-0.9826,-0.9834,-0.983,-0.9819,-0.9819,-0.9819,-0.9818,0,-0.9721,-0.9716,-0.9747,-0.9751,-0.9752,-0.9774,-0.9778,-0.9796,-0.9794,-0.9819,-0.9824,-0.9823,-0.9843,-0.984,-0.9863,-0.9861,-0.99,-0.9894,-0.9897,-0.9896,-0.9923,-0.9921,-1.0009,-1.002,-0.994,-0.994,-0.9941,0,-0.976,-0.978,-0.9786,-0.9797,-0.9801,-0.9819,-0.983,-0.9822,-0.9834,-0.9845,-0.9862,-0.9881,-0.9896,-0.993,-0.9932,-0.9949,-0.9945,-0.9974,-0.9948,-0.995,-0.9946,-0.9946,-0.9948,-0.998,-0.9981,-0.9982,-0.9982,0,-0.9829,-0.9826,-0.9841,-0.9855,-0.9868,-0.9879,-0.9889,-0.9899,-0.9892,-0.9906,-0.9926,-0.9938,-0.9961,-0.9981,-0.9998,-1.0003,-0.9992,-0.9991,-0.9998,-1.0001,-1.0002,-1.0003,-0.9912,-0.9989,-0.9988,-0.9988,-0.9987,-0.9987,-0.9881,-0.9898,-0.9904,-0.9922,-0.9928,-0.9938,-0.9954,-0.9955,-0.9971,-0.9989,-0.9983,-1.0007,-1.0016,-1.0037,-1.0044,-1.0063,-1.0052,-1.0062,-1.0065,-1.0068,-1.0072,-0.9998,-1.0066,-1.0066,-1.0065,-1.0065,-1.0065,0,-0.995,-0.9953,-0.9969,-0.9983,-0.9997,-0.9984,-0.9994,-1.0007,-1.0028,-1.0037,-1.0051,-1.0075,-1.0094,-1.0097,-1.0115,-1.013,-1.0126,-1.0135,-1.0135,-1.0136,-1.008,-1.0072,-1.0138,-1.0138,-1.0138,-1.0138,-1.0138,-1.0138,-0.9988,-1.0017,-1.0014,-1.0046,-1.0049,-1.0071,-1.0079,-1.0088,-1.0095,-1.0122,-1.0137,-1.0138,-1.0145,-1.0164,-1.0181,-1.0181,-1.0189,-1.0201,-1.02,-1.0147,-1.014,-1.0133,-1.0126,-1.0202,-1.0203,-1.0255,-1.0255,-1.0256]},{"header":{"parameterUnit":"m.s-1","parameterCategory":1,"la1":30.2991,"la2":30.254,"lo1":-89.0895,"lo2":-89.0444,"dy":0.0017,"dx":0.0017,"nx":28,"ny":28,"refTime":"2025-06-22T21:00:00:Z","depth":0,"parameterNumber":3,"parameterNumberName":"V-component_of_WINDS"},"data":[0,0,0,0,0,0,0,0,0,0,0,0,0,0,0,0,0,0,0,0,0,0,0,0,0,0,0,0,0,0,0,0,0,0,0,0,0,0,0,0,0,0,0,0,0,0,0,0,0,0,0,0,0,0,0,0,0,0,2.2847,2.2847,0,2.2816,2.2816,2.2816,2.2768,2.2767,2.2767,2.2766,2.2734,2.2734,2.2734,0,0,0,0,0,0,0,0,0,0,0,0,0,2.2866,2.2866,2.2847,2.2847,2.2847,2.2816,2.2816,2.2816,2.2768,2.2767,2.2766,2.2765,2.2734,2.2734,2.2734,0,0,0,0,0,0,0,0,0,0,0,0,0,2.2849,2.2866,2.2848,2.282,2.2817,2.2816,2.2816,2.2815,2.2769,2.2767,2.2766,2.2765,2.2734,2.2734,2.2734,2.2759,0,0,2.2734,2.2734,0,0,0,0,0,0,0,0,2.285,2.2848,2.2824,2.2821,2.2818,2.2795,2.2811,2.2797,2.2769,2.2787,2.2766,2.2764,2.2756,2.2754,2.2751,2.2758,2.2756,2.2734,2.2734,2.2734,2.2734,0,0,0,0,0,0,0,2.2851,2.2849,2.2835,2.2824,2.282,2.2809,2.2805,2.2808,2.2779,2.2785,2.2782,2.2779,2.2754,2.2751,2.275,2.2756,2.2734,2.2734,2.2734,2.2734,2.2781,2.2782,0,0,0,0,0,0,2.2857,2.2851,2.2836,2.2834,2.2831,2.2809,2.2805,2.2804,2.2779,2.2774,2.278,2.2777,2.2752,2.275,2.2748,2.2775,2.2734,2.2734,2.2734,2.278,2.2781,2.2782,0,0,0,0,0,0,2.2857,2.2856,2.2837,2.2842,2.2838,2.281,2.2809,2.2804,2.2801,2.2774,2.2769,2.2782,2.2751,2.2748,2.2757,2.2773,2.2734,2.2734,2.2778,2.278,2.2782,2.2829,0,0,0,0,0,0,2.2858,2.2856,2.2865,2.2842,2.2838,2.2846,2.281,2.2804,2.2801,2.2796,2.2775,2.2771,2.2749,2.2757,2.2757,2.2772,2.2734,2.2776,2.2779,2.2781,2.2825,2.2832,2.2837,0,0,0,0,0,2.2859,2.288,2.2866,2.2865,2.2849,2.2847,2.2845,2.282,2.2802,2.2811,2.2794,2.2771,2.2772,2.2758,2.2757,2.2773,2.2775,2.2778,2.2781,2.2823,2.2831,2.2837,0,0,0,0,0,0,2.2906,2.2876,2.2861,2.2875,2.2864,2.2839,2.285,2.2829,2.2823,2.282,2.2789,2.2785,2.2797,2.2786,2.2771,2.2796,2.277,2.2773,2.2802,2.2809,2.2815,2.2817,2.2734,0,0,0,0,0,2.2918,2.2919,2.2893,2.2909,2.2904,2.2878,2.2876,2.2858,2.2845,2.2841,2.2824,2.2813,2.281,2.2809,2.2806,2.2824,2.2818,2.2835,2.2841,2.2846,2.2848,2.2856,2.2863,2.2792,2.2792,2.2792,0,0,2.2943,2.2927,2.293,2.2918,2.2907,2.2909,2.2874,2.2878,2.2878,2.2841,2.2847,2.2835,2.2821,2.2834,2.2839,2.2825,2.2867,2.2849,2.2854,2.2853,2.286,2.2866,2.2872,2.2794,2.2794,2.2793,0,0,2.2989,2.2978,2.2989,2.2979,2.2963,2.2945,2.2948,2.2926,2.2917,2.2923,2.2894,2.2895,2.2892,2.2882,2.2877,2.292,2.2898,2.2919,2.295,2.2958,2.2964,2.2968,2.2983,2.2988,2.2922,2.2922,2.2922,0,2.3022,2.3023,2.2997,2.3002,2.2997,2.2963,2.2974,2.2966,2.295,2.2947,2.2932,2.2927,2.2915,2.2924,2.2935,2.2932,2.2934,2.2921,2.2965,2.297,2.2974,2.2987,2.2992,2.2925,2.2925,2.2924,2.2924,0,2.3064,2.3066,2.3076,2.3061,2.3058,2.3066,2.304,2.304,2.3022,2.3007,2.3013,2.2997,2.2989,2.299,2.2973,2.2998,2.299,2.2971,2.2944,2.2983,2.2995,2.3,2.2929,2.2928,2.2927,2.2926,0,0,2.3138,2.3109,2.3113,2.3105,2.3086,2.3086,2.3092,2.3084,2.3084,2.3075,2.3079,2.3077,2.3058,2.3053,2.3034,2.3041,2.3075,2.3021,2.302,2.3031,2.31,2.3113,2.312,2.3061,2.3062,2.3062,2.31,0,2.318,2.3188,2.3164,2.3179,2.3179,2.3148,2.3153,2.3141,2.3127,2.3125,2.3109,2.3108,2.3085,2.3081,2.3086,2.307,2.3088,2.3067,2.3064,2.3064,2.3067,2.3126,2.314,2.3177,2.3105,2.3106,2.3106,0,2.3229,2.3221,2.3235,2.3214,2.3213,2.3219,2.3209,2.3208,2.3194,2.3183,2.3177,2.3155,2.316,2.3135,2.314,2.3126,2.3124,2.3115,2.3116,2.3114,2.3087,2.3124,2.3188,2.3193,2.3113,2.3113,2.3112,0,2.328,2.3273,2.3281,2.3276,2.3251,2.3256,2.3246,2.3231,2.3227,2.3219,2.3217,2.321,2.3205,2.32,2.3177,2.3162,2.3185,2.3158,2.3175,2.3176,2.318,2.318,2.3244,2.3181,2.3181,2.3181,2.3181,0,2.3327,2.3337,2.3303,2.3308,2.3318,2.3291,2.3301,2.3288,2.3275,2.3277,2.3249,2.3251,2.3221,2.322,2.3202,2.3208,2.3207,2.3198,2.3192,2.3199,2.32,2.3196,2.3193,2.3182,2.3182,2.3182,2.3181,0,2.3386,2.3364,2.3369,2.3346,2.3341,2.3349,2.3329,2.3332,2.3316,2.3318,2.3317,2.3292,2.3288,2.3265,2.3257,2.3245,2.3257,2.3248,2.3262,2.3258,2.3276,2.3274,2.3338,2.3345,2.3279,2.328,2.328,0,2.3417,2.3424,2.3401,2.34,2.3391,2.339,2.3386,2.336,2.3357,2.3342,2.3347,2.3341,2.3335,2.3332,2.3312,2.3306,2.3295,2.3318,2.3294,2.33,2.3294,2.3293,2.3293,2.3323,2.3324,2.3324,2.3325,0,2.3474,2.3463,2.3459,2.3451,2.3447,2.3439,2.343,2.3431,2.3402,2.34,2.3396,2.3392,2.3383,2.3377,2.3367,2.3357,2.3336,2.3333,2.3336,2.3342,2.335,2.3345,2.3275,2.3331,2.3331,2.333,2.333,2.3329,2.3519,2.3523,2.3508,2.3504,2.3494,2.3486,2.3488,2.3472,2.3468,2.3459,2.3444,2.3442,2.3428,2.3412,2.3403,2.3401,2.3389,2.3394,2.3395,2.3396,2.34,2.3351,2.3399,2.3399,2.3399,2.3399,2.3399,0,2.3574,2.3563,2.3559,2.3547,2.3544,2.3525,2.3513,2.3512,2.3511,2.3499,2.3494,2.3489,2.3484,2.3464,2.3457,2.3459,2.3449,2.3458,2.3456,2.3454,2.3411,2.3409,2.3466,2.3466,2.3466,2.3466,2.3466,2.3466,2.3602,2.3608,2.3595,2.3596,2.3584,2.3582,2.3577,2.3569,2.356,2.3556,2.3551,2.3538,2.3523,2.3515,2.3509,2.3503,2.3501,2.3513,2.3504,2.3464,2.3457,2.3451,2.3448,2.3513,2.3513,2.3546,2.3547,2.3547]}]]